| time (UTC) | temp C | wind direction | speed KPH | gust KPH | rain 1hr cm | rain 24hr cm | rain mn cm | humidity % | barometer mb |
| 20260506070558 | 11 | 203 | 4.8 | 11.3 | 0.00 | 0.00 | 0.00 | 88 | 1008.5 |
| 20260506062517 | 11 | 225 | 6.4 | 11.3 | 0.00 | 0.00 | 0.00 | 87 | 1008.3 |
| 20260506062017 | 11 | 225 | 8.0 | 12.9 | 0.00 | 0.00 | 0.00 | 87 | 1008.3 |
| 20260506061518 | 11 | 225 | 8.0 | 12.9 | 0.00 | 0.00 | 0.00 | 87 | 1008.3 |
| 20260506061017 | 11 | 225 | 8.0 | 16.1 | 0.00 | 0.00 | 0.00 | 87 | 1008.4 |
| 20260506060517 | 11 | 203 | 9.7 | 25.7 | 0.00 | 0.00 | 0.00 | 87 | 1008.4 |
| 20260506051017 | 11 | 203 | 8.0 | 14.5 | 0.00 | 0.00 | 0.00 | 87 | 1008.5 |
| 20260506050518 | 11 | 203 | 4.8 | 8.0 | 0.00 | 0.00 | 0.00 | 86 | 1008.4 |
| 20260506045017 | 11 | 225 | 6.4 | 14.5 | 0.00 | 0.00 | 0.00 | 86 | 1008.5 |
| 20260506044017 | 11 | 225 | 11.3 | 22.5 | 0.00 | 0.00 | 0.00 | 86 | 1008.5 |
| 20260506043017 | 12 | 225 | 9.7 | 19.3 | 0.00 | 0.00 | 0.00 | 85 | 1008.7 |
| 20260506041017 | 12 | 225 | 6.4 | 11.3 | 0.00 | 0.00 | 0.00 | 86 | 1008.4 |
| 20260506040537 | 11 | 180 | 4.8 | 16.1 | 0.00 | 0.00 | 0.00 | 86 | 1008.2 |
| 20260506040017 | 11 | 203 | 3.2 | 12.9 | 0.00 | 0.00 | 0.00 | 86 | 1008.3 |
| 20260506035517 | 12 | 203 | 3.2 | 9.7 | 0.00 | 0.00 | 0.00 | 86 | 1008.3 |
| 20260506035018 | 12 | 203 | 4.8 | 11.3 | 0.00 | 0.00 | 0.00 | 86 | 1008.3 |
| 20260506034518 | 12 | 203 | 3.2 | 8.0 | 0.00 | 0.00 | 0.00 | 85 | 1008.2 |
| 20260506034018 | 12 | 203 | 4.8 | 9.7 | 0.00 | 0.00 | 0.00 | 85 | 1008.0 |
| 20260506033538 | 12 | 203 | 6.4 | 12.9 | 0.00 | 0.00 | 0.00 | 85 | 1008.0 |
| 20260506033058 | 12 | 203 | 4.8 | 11.3 | 0.00 | 0.00 | 0.00 | 85 | 1008.1 |
| 20260506032537 | 12 | 158 | 1.6 | 8.0 | 0.00 | 0.00 | 0.00 | 84 | 1007.9 |
| 20260506032019 | 12 | 113 | 1.6 | 6.4 | 0.00 | 0.00 | 0.00 | 84 | 1008.1 |
| 20260506031518 | 12 | 225 | 6.4 | 16.1 | 0.00 | 0.00 | 0.00 | 84 | 1008.1 |
| 20260506031038 | 12 | 203 | 8.0 | 19.3 | 0.00 | 0.00 | 0.00 | 84 | 1008.1 |
| 20260506030517 | 12 | 203 | 3.2 | 12.9 | 0.00 | 0.00 | 0.00 | 83 | 1008.1 |
| 20260506030017 | 12 | 225 | 6.4 | 11.3 | 0.00 | 0.00 | 0.00 | 83 | 1008.3 |
| 20260506025518 | 12 | 203 | 6.4 | 19.3 | 0.00 | 0.00 | 0.00 | 82 | 1007.9 |
| 20260506025037 | 12 | 180 | 4.8 | 19.3 | 0.00 | 0.00 | 0.00 | 82 | 1008.2 |
| 20260506024537 | 13 | 203 | 3.2 | 6.4 | 0.00 | 0.00 | 0.00 | 81 | 1008.2 |
| 20260506024017 | 13 | 180 | 3.2 | 8.0 | 0.00 | 0.00 | 0.00 | 80 | 1008.2 |
| 20260506023518 | 13 | 203 | 3.2 | 6.4 | 0.00 | 0.00 | 0.00 | 80 | 1008.3 |
| 20260506023017 | 13 | 203 | 3.2 | 9.7 | 0.00 | 0.00 | 0.00 | 80 | 1008.2 |
| 20260506022517 | 13 | 180 | 3.2 | 8.0 | 0.00 | 0.00 | 0.00 | 79 | 1008.3 |
| 20260506022017 | 13 | 158 | 3.2 | 14.5 | 0.00 | 0.00 | 0.00 | 79 | 1008.4 |
| 20260506021538 | 14 | 180 | 6.4 | 14.5 | 0.00 | 0.00 | 0.00 | 78 | 1008.3 |
| 20260506021017 | 14 | 225 | 4.8 | 12.9 | 0.00 | 0.00 | 0.00 | 78 | 1008.3 |
| 20260506020517 | 14 | 225 | 6.4 | 11.3 | 0.00 | 0.00 | 0.00 | 77 | 1008.5 |
| 20260506020017 | 14 | 225 | 9.7 | 24.1 | 0.00 | 0.00 | 0.00 | 77 | 1008.4 |
| 20260506015518 | 14 | 203 | 8.0 | 14.5 | 0.00 | 0.00 | 0.00 | 77 | 1008.5 |
| 20260506015017 | 14 | 203 | 6.4 | 11.3 | 0.00 | 0.00 | 0.00 | 77 | 1008.5 |
| 20260506014537 | 15 | 158 | 3.2 | 11.3 | 0.00 | 0.00 | 0.00 | 77 | 1008.3 |
| 20260506014018 | 15 | 225 | 4.8 | 11.3 | 0.00 | 0.00 | 0.00 | 76 | 1008.3 |
| 20260506013518 | 15 | 225 | 8.0 | 14.5 | 0.00 | 0.00 | 0.00 | 77 | 1008.4 |
| 20260506013017 | 15 | 225 | 4.8 | 11.3 | 0.00 | 0.00 | 0.00 | 77 | 1008.3 |
| 20260506012517 | 15 | 225 | 6.4 | 12.9 | 0.00 | 0.00 | 0.00 | 77 | 1008.4 |
| 20260506012037 | 15 | 225 | 8.0 | 14.5 | 0.00 | 0.00 | 0.00 | 76 | 1008.3 |
| 20260506011518 | 15 | 180 | 4.8 | 17.7 | 0.00 | 0.00 | 0.00 | 77 | 1008.2 |
| 20260506011017 | 15 | 203 | 4.8 | 11.3 | 0.00 | 0.00 | 0.00 | 76 | 1008.2 |
| 20260506010518 | 15 | 203 | 4.8 | 12.9 | 0.00 | 0.00 | 0.00 | 76 | 1008.1 |
| 20260506010017 | 15 | 225 | 4.8 | 8.0 | 0.00 | 0.00 | 0.00 | 77 | 1007.9 |
| 20260506005558 | 15 | 225 | 4.8 | 11.3 | 0.00 | 0.00 | 0.00 | 77 | 1008.2 |
| 20260506005017 | 15 | 225 | 8.0 | 14.5 | 0.00 | 0.00 | 0.00 | 77 | 1008.3 |
| 20260506004517 | 15 | 248 | 8.0 | 17.7 | 0.00 | 0.00 | 0.00 | 77 | 1008.3 |
| 20260506004017 | 15 | 225 | 6.4 | 12.9 | 0.00 | 0.00 | 0.00 | 77 | 1007.7 |
| 20260506003517 | 15 | 225 | 4.8 | 9.7 | 0.00 | 0.00 | 0.00 | 78 | 1007.6 |
| 20260506003017 | 15 | 203 | 6.4 | 11.3 | 0.00 | 0.00 | 0.00 | 79 | 1007.6 |
| 20260506002517 | 15 | 180 | 3.2 | 8.0 | 0.00 | 0.00 | 0.00 | 80 | 1007.2 |
| 20260506002118 | 15 | 180 | 1.6 | 4.8 | 0.00 | 0.00 | 0.00 | 79 | 1006.8 |
| 20260506001517 | 15 | 0.0 | 3.2 | 0.00 | 0.00 | 0.00 | 79 | 1006.6 | |
| 20260506001017 | 15 | 113 | 1.6 | 4.8 | 0.00 | 0.00 | 0.00 | 79 | 1006.3 |
| 20260506000517 | 15 | 270 | 1.6 | 4.8 | 0.00 | 0.00 | 0.00 | 78 | 1006.5 |
| 20260506000017 | 15 | 90 | 4.8 | 8.0 | 0.00 | 0.00 | 0.00 | 78 | 1006.2 |
| 20260505235517 | 15 | 158 | 1.6 | 4.8 | 0.00 | 0.00 | 0.00 | 77 | 1006.7 |
| 20260505235017 | 15 | 203 | 3.2 | 11.3 | 0.00 | 0.00 | 0.00 | 77 | 1006.4 |
| 20260505234517 | 15 | 203 | 3.2 | 9.7 | 0.00 | 0.00 | 0.00 | 77 | 1006.9 |
| 20260505234017 | 15 | 203 | 6.4 | 14.5 | 0.00 | 0.00 | 0.00 | 77 | 1007.1 |
| 20260505233517 | 15 | 225 | 8.0 | 17.7 | 0.00 | 0.00 | 0.00 | 77 | 1006.9 |
| 20260505233018 | 15 | 203 | 8.0 | 16.1 | 0.00 | 0.00 | 0.00 | 77 | 1006.6 |
| 20260505232517 | 14 | 225 | 11.3 | 22.5 | 0.00 | 0.00 | 0.00 | 78 | 1006.7 |
| 20260505232017 | 14 | 225 | 14.5 | 27.4 | 0.00 | 0.00 | 0.00 | 80 | 1006.7 |
| 20260505231517 | 13 | 225 | 17.7 | 37.0 | 0.00 | 0.00 | 0.00 | 81 | 1006.9 |
| 20260505231017 | 13 | 248 | 24.1 | 46.7 | 0.00 | 0.00 | 0.00 | 84 | 1007.4 |
| 20260505230517 | 13 | 248 | 11.3 | 22.5 | 0.00 | 0.00 | 0.00 | 83 | 1005.5 |
| 20260505230017 | 13 | 248 | 11.3 | 20.9 | 0.00 | 0.00 | 0.00 | 82 | 1005.2 |
| 20260505225517 | 13 | 225 | 12.9 | 24.1 | 0.00 | 0.00 | 0.00 | 80 | 1005.2 |
| 20260505225018 | 13 | 225 | 14.5 | 25.7 | 0.00 | 0.00 | 0.00 | 80 | 1005.0 |
| 20260505224517 | 13 | 225 | 12.9 | 25.7 | 0.00 | 0.00 | 0.00 | 80 | 1005.0 |
| 20260505224018 | 13 | 225 | 19.3 | 37.0 | 0.00 | 0.00 | 0.00 | 80 | 1004.9 |
| 20260505223518 | 13 | 203 | 12.9 | 27.4 | 0.00 | 0.00 | 0.00 | 80 | 1004.9 |
| 20260505223038 | 13 | 225 | 19.3 | 38.6 | 0.00 | 0.00 | 0.00 | 80 | 1005.0 |
| 20260505222518 | 13 | 203 | 20.9 | 38.6 | 0.00 | 0.00 | 0.00 | 80 | 1004.9 |
| 20260505222017 | 13 | 203 | 16.1 | 29.0 | 0.00 | 0.00 | 0.00 | 80 | 1004.6 |
| 20260505221518 | 13 | 225 | 17.7 | 33.8 | 0.00 | 0.00 | 0.00 | 79 | 1004.6 |
| 20260505221017 | 13 | 203 | 17.7 | 29.0 | 0.00 | 0.00 | 0.00 | 78 | 1004.6 |
| 20260505220518 | 14 | 225 | 19.3 | 37.0 | 0.00 | 0.00 | 0.00 | 78 | 1004.6 |
| 20260505220017 | 14 | 225 | 20.9 | 40.2 | 0.00 | 0.00 | 0.00 | 78 | 1004.7 |
| 20260505215517 | 14 | 225 | 19.3 | 32.2 | 0.00 | 0.00 | 0.00 | 77 | 1004.8 |
| 20260505215018 | 14 | 225 | 16.1 | 29.0 | 0.00 | 0.00 | 0.00 | 77 | 1004.5 |
| 20260505214517 | 14 | 225 | 14.5 | 29.0 | 0.00 | 0.00 | 0.00 | 78 | 1004.6 |
| 20260505214017 | 14 | 225 | 14.5 | 32.2 | 0.00 | 0.00 | 0.00 | 78 | 1004.6 |
| 20260505213517 | 14 | 203 | 14.5 | 35.4 | 0.00 | 0.00 | 0.00 | 78 | 1004.6 |
| 20260505213017 | 14 | 225 | 11.3 | 25.7 | 0.00 | 0.00 | 0.00 | 78 | 1004.6 |
| 20260505212517 | 14 | 203 | 11.3 | 22.5 | 0.00 | 0.00 | 0.00 | 78 | 1004.4 |
| 20260505212018 | 14 | 225 | 11.3 | 27.4 | 0.00 | 0.00 | 0.00 | 78 | 1004.5 |
| 20260505211517 | 14 | 225 | 12.9 | 22.5 | 0.00 | 0.00 | 0.00 | 78 | 1004.6 |
| 20260505211028 | 15 | 225 | 11.3 | 24.1 | 0.00 | 0.00 | 0.00 | 78 | 1004.6 |
| 20260505210520 | 15 | 203 | 14.5 | 24.1 | 0.00 | 0.00 | 0.00 | 79 | 1004.7 |
| 20260505210017 | 15 | 225 | 12.9 | 22.5 | 0.00 | 0.00 | 0.00 | 79 | 1004.7 |
| 20260505205538 | 15 | 225 | 11.3 | 22.5 | 0.00 | 0.00 | 0.00 | 79 | 1004.6 |
| 20260505205019 | 15 | 225 | 16.1 | 25.7 | 0.00 | 0.00 | 0.00 | 77 | 1004.7 |
| 20260505204516 | 15 | 248 | 16.1 | 27.4 | 0.00 | 0.00 | 0.00 | 77 | 1004.5 |
| 20260505204020 | 15 | 225 | 12.9 | 25.7 | 0.00 | 0.00 | 0.00 | 75 | 1004.5 |
| 20260505203518 | 16 | 225 | 12.9 | 20.9 | 0.00 | 0.00 | 0.00 | 74 | 1004.5 |
| 20260505203017 | 16 | 225 | 14.5 | 33.8 | 0.00 | 0.00 | 0.00 | 74 | 1004.8 |
| 20260505202538 | 15 | 225 | 11.3 | 29.0 | 0.00 | 0.00 | 0.00 | 76 | 1004.7 |
| 20260505202017 | 15 | 225 | 12.9 | 29.0 | 0.00 | 0.00 | 0.00 | 77 | 1004.6 |
| 20260505201517 | 15 | 225 | 12.9 | 25.7 | 0.00 | 0.00 | 0.00 | 77 | 1004.8 |
| 20260505201017 | 15 | 225 | 14.5 | 25.7 | 0.00 | 0.00 | 0.00 | 77 | 1004.8 |
| 20260505200517 | 15 | 225 | 14.5 | 27.4 | 0.00 | 0.00 | 0.00 | 77 | 1004.9 |
| 20260505200058 | 15 | 225 | 12.9 | 27.4 | 0.00 | 0.00 | 0.00 | 77 | 1004.9 |
| 20260505195517 | 15 | 225 | 16.1 | 27.4 | 0.00 | 0.00 | 0.00 | 75 | 1005.1 |
| 20260505195017 | 16 | 248 | 11.3 | 25.7 | 0.00 | 0.00 | 0.00 | 76 | 1005.0 |
| 20260505194541 | 16 | 225 | 12.9 | 24.1 | 0.00 | 0.00 | 0.00 | 74 | 1005.0 |
| 20260505194018 | 16 | 225 | 11.3 | 20.9 | 0.00 | 0.00 | 0.00 | 75 | 1005.1 |
| 20260505193517 | 16 | 225 | 9.7 | 20.9 | 0.00 | 0.00 | 0.00 | 75 | 1005.1 |
| 20260505193018 | 16 | 225 | 11.3 | 22.5 | 0.00 | 0.00 | 0.00 | 77 | 1005.2 |
| 20260505192517 | 16 | 248 | 12.9 | 24.1 | 0.00 | 0.00 | 0.00 | 77 | 1005.3 |
| 20260505192017 | 15 | 225 | 12.9 | 20.9 | 0.00 | 0.00 | 0.00 | 78 | 1005.3 |
| 20260505191518 | 15 | 225 | 12.9 | 25.7 | 0.00 | 0.00 | 0.00 | 77 | 1005.7 |
| 20260505191017 | 16 | 270 | 16.1 | 22.5 | 0.00 | 0.00 | 0.00 | 78 | 1005.7 |
| 20260505190537 | 16 | 225 | 12.9 | 24.1 | 0.00 | 0.00 | 0.00 | 76 | 1005.6 |
| 20260505190037 | 15 | 225 | 14.5 | 20.9 | 0.00 | 0.00 | 0.00 | 78 | 1005.5 |
| 20260505185517 | 15 | 248 | 16.1 | 24.1 | 0.00 | 0.00 | 0.00 | 80 | 1005.7 |
| 20260505185017 | 15 | 248 | 16.1 | 20.9 | 0.00 | 0.00 | 0.00 | 78 | 1005.6 |
| 20260505184537 | 16 | 248 | 12.9 | 20.9 | 0.00 | 0.00 | 0.00 | 78 | 1005.7 |
| 20260505184018 | 16 | 203 | 12.9 | 25.7 | 0.00 | 0.00 | 0.00 | 78 | 1005.7 |
| 20260505183516 | 16 | 203 | 9.7 | 19.3 | 0.00 | 0.00 | 0.00 | 77 | 1005.7 |
| 20260505183016 | 15 | 248 | 11.3 | 24.1 | 0.00 | 0.00 | 0.00 | 80 | 1005.8 |
| 20260505182517 | 15 | 248 | 16.1 | 24.1 | 0.00 | 0.00 | 0.00 | 78 | 1006.1 |
| 20260505182016 | 16 | 248 | 12.9 | 25.7 | 0.00 | 0.00 | 0.00 | 77 | 1006.0 |
| 20260505181521 | 16 | 270 | 9.7 | 19.3 | 0.00 | 0.00 | 0.00 | 79 | 1006.0 |
| 20260505181017 | 16 | 270 | 9.7 | 16.1 | 0.00 | 0.00 | 0.00 | 77 | 1006.0 |
| 20260505180517 | 16 | 203 | 9.7 | 19.3 | 0.00 | 0.00 | 0.00 | 77 | 1006.0 |
| 20260505180016 | 17 | 248 | 11.3 | 19.3 | 0.00 | 0.00 | 0.00 | 73 | 1005.9 |
| 20260505175517 | 17 | 225 | 6.4 | 16.1 | 0.00 | 0.00 | 0.00 | 74 | 1006.0 |
| 20260505175017 | 17 | 225 | 8.0 | 16.1 | 0.00 | 0.00 | 0.00 | 70 | 1006.0 |
| 20260505174516 | 17 | 180 | 4.8 | 16.1 | 0.00 | 0.00 | 0.00 | 73 | 1006.2 |
| 20260505174017 | 17 | 225 | 9.7 | 19.3 | 0.00 | 0.00 | 0.00 | 72 | 1006.3 |
| 20260505173517 | 17 | 203 | 8.0 | 19.3 | 0.00 | 0.00 | 0.00 | 73 | 1006.4 |
| 20260505173018 | 17 | 270 | 8.0 | 14.5 | 0.00 | 0.00 | 0.00 | 74 | 1006.6 |
| 20260505172517 | 17 | 270 | 6.4 | 22.5 | 0.00 | 0.00 | 0.00 | 74 | 1006.8 |
| 20260505172017 | 17 | 225 | 4.8 | 17.7 | 0.00 | 0.00 | 0.00 | 75 | 1006.8 |
| 20260505171516 | 17 | 248 | 4.8 | 12.9 | 0.00 | 0.00 | 0.00 | 76 | 1006.9 |
| 20260505171017 | 17 | 248 | 8.0 | 16.1 | 0.00 | 0.00 | 0.00 | 76 | 1006.9 |
| 20260505170558 | 17 | 225 | 9.7 | 17.7 | 0.00 | 0.00 | 0.00 | 71 | 1006.9 |
| 20260505170017 | 17 | 225 | 4.8 | 9.7 | 0.00 | 0.00 | 0.00 | 73 | 1006.9 |
| 20260505165538 | 17 | 180 | 1.6 | 8.0 | 0.00 | 0.00 | 0.00 | 75 | 1006.9 |
| 20260505165016 | 17 | 203 | 8.0 | 19.3 | 0.00 | 0.00 | 0.00 | 75 | 1007.0 |
| 20260505164516 | 16 | 225 | 9.7 | 19.3 | 0.00 | 0.00 | 0.00 | 74 | 1007.1 |
| 20260505164022 | 16 | 225 | 14.5 | 22.5 | 0.00 | 0.00 | 0.00 | 76 | 1007.3 |
| 20260505163516 | 16 | 225 | 14.5 | 22.5 | 0.00 | 0.00 | 0.00 | 74 | 1007.3 |
| 20260505163016 | 16 | 225 | 6.4 | 11.3 | 0.00 | 0.00 | 0.00 | 77 | 1007.4 |
| 20260505162516 | 16 | 225 | 6.4 | 16.1 | 0.00 | 0.00 | 0.00 | 76 | 1007.5 |
| 20260505162037 | 16 | 203 | 11.3 | 22.5 | 0.00 | 0.00 | 0.00 | 74 | 1007.6 |
| 20260505161517 | 16 | 203 | 9.7 | 16.1 | 0.00 | 0.00 | 0.00 | 76 | 1007.4 |
| 20260505161016 | 16 | 203 | 6.4 | 14.5 | 0.00 | 0.00 | 0.00 | 78 | 1007.5 |
| 20260505160516 | 15 | 180 | 6.4 | 17.7 | 0.00 | 0.00 | 0.00 | 80 | 1007.8 |
| 20260505153036 | 14 | 225 | 8.0 | 22.5 | 0.00 | 0.00 | 0.00 | 82 | 1008.4 |
| 20260505152516 | 13 | 203 | 9.7 | 17.7 | 0.00 | 0.00 | 0.00 | 83 | 1008.7 |
| 20260505152016 | 13 | 203 | 8.0 | 20.9 | 0.00 | 0.00 | 0.00 | 82 | 1008.6 |
| 20260505151557 | 13 | 225 | 8.0 | 16.1 | 0.00 | 0.00 | 0.00 | 84 | 1008.9 |
| 20260505151036 | 13 | 225 | 11.3 | 19.3 | 0.00 | 0.00 | 0.00 | 82 | 1009.0 |
| 20260505150517 | 13 | 203 | 14.5 | 27.4 | 0.00 | 0.00 | 0.00 | 82 | 1008.7 |
| 20260505140521 | 13 | 203 | 6.4 | 14.5 | 0.00 | 0.00 | 0.00 | 82 | 1008.3 |
| 20260505125020 | 12 | 203 | 11.3 | 25.7 | 0.00 | 0.00 | 0.00 | 82 | 1008.2 |
| 20260505124518 | 12 | 203 | 14.5 | 27.4 | 0.00 | 0.00 | 0.00 | 82 | 1008.3 |
| 20260505124018 | 12 | 203 | 11.3 | 20.9 | 0.00 | 0.00 | 0.00 | 82 | 1008.2 |
| 20260505123519 | 12 | 225 | 11.3 | 22.5 | 0.00 | 0.00 | 0.00 | 82 | 1008.3 |
| 20260505123040 | 12 | 203 | 6.4 | 16.1 | 0.00 | 0.00 | 0.00 | 83 | 1008.2 |
| 20260505122518 | 12 | 248 | 4.8 | 19.3 | 0.00 | 0.00 | 0.00 | 84 | 1008.2 |
| 20260505122018 | 12 | 203 | 6.4 | 14.5 | 0.00 | 0.00 | 0.00 | 83 | 1008.3 |
| 20260505121519 | 12 | 225 | 4.8 | 14.5 | 0.00 | 0.00 | 0.00 | 83 | 1008.3 |
| 20260505121023 | 12 | 225 | 9.7 | 24.1 | 0.00 | 0.00 | 0.00 | 83 | 1008.4 |
| 20260505120519 | 12 | 203 | 9.7 | 24.1 | 0.00 | 0.00 | 0.00 | 83 | 1008.5 |
| 20260505120018 | 12 | 203 | 8.0 | 19.3 | 0.00 | 0.00 | 0.00 | 83 | 1008.6 |
| 20260505115519 | 11 | 225 | 8.0 | 20.9 | 0.00 | 0.00 | 0.00 | 84 | 1008.5 |
| 20260505115019 | 11 | 225 | 8.0 | 17.7 | 0.00 | 0.00 | 0.00 | 84 | 1008.5 |
| 20260505114518 | 11 | 225 | 6.4 | 9.7 | 0.00 | 0.00 | 0.00 | 84 | 1009.0 |
| 20260505114018 | 11 | 225 | 8.0 | 14.5 | 0.00 | 0.00 | 0.00 | 85 | 1008.7 |
| 20260505113518 | 11 | 225 | 8.0 | 20.9 | 0.00 | 0.00 | 0.00 | 85 | 1008.8 |
| 20260505113022 | 11 | 203 | 6.4 | 12.9 | 0.00 | 0.00 | 0.00 | 85 | 1008.5 |
| 20260505112521 | 11 | 225 | 4.8 | 11.3 | 0.00 | 0.00 | 0.00 | 85 | 1008.7 |
| 20260505112019 | 11 | 225 | 4.8 | 12.9 | 0.00 | 0.00 | 0.00 | 85 | 1008.6 |
| 20260505111519 | 11 | 203 | 4.8 | 12.9 | 0.00 | 0.00 | 0.00 | 86 | 1008.5 |
| 20260505111024 | 10 | 225 | 6.4 | 14.5 | 0.00 | 0.00 | 0.00 | 86 | 1008.4 |
| 20260505110518 | 10 | 225 | 6.4 | 14.5 | 0.00 | 0.00 | 0.00 | 86 | 1008.5 |
| 20260505102017 | 10 | 180 | 3.2 | 9.7 | 0.00 | 0.00 | 0.00 | 88 | 1008.1 |
| 20260505101539 | 10 | 225 | 3.2 | 6.4 | 0.00 | 0.00 | 0.00 | 88 | 1008.3 |
| 20260505101038 | 9 | 203 | 3.2 | 8.0 | 0.00 | 0.00 | 0.00 | 88 | 1008.2 |
| 20260505100519 | 9 | 248 | 3.2 | 8.0 | 0.00 | 0.00 | 0.00 | 88 | 1008.2 |
| 20260505100017 | 9 | 203 | 1.6 | 8.0 | 0.00 | 0.00 | 0.00 | 88 | 1008.0 |
| 20260505095519 | 9 | 225 | 1.6 | 6.4 | 0.00 | 0.00 | 0.00 | 89 | 1008.2 |
| 20260505095017 | 9 | 203 | 3.2 | 8.0 | 0.00 | 0.00 | 0.00 | 89 | 1008.1 |
| 20260505094520 | 8 | 203 | 3.2 | 6.4 | 0.00 | 0.00 | 0.00 | 90 | 1008.2 |
| 20260505094019 | 8 | 225 | 3.2 | 6.4 | 0.00 | 0.00 | 0.00 | 90 | 1008.2 |
| 20260505093519 | 8 | 180 | 1.6 | 6.4 | 0.00 | 0.00 | 0.00 | 89 | 1008.0 |
| 20260505093019 | 8 | 180 | 1.6 | 8.0 | 0.00 | 0.00 | 0.00 | 90 | 1008.2 |
| 20260505092518 | 8 | 158 | 1.6 | 9.7 | 0.00 | 0.00 | 0.00 | 90 | 1008.3 |
| 20260505092039 | 8 | 158 | 3.2 | 9.7 | 0.00 | 0.00 | 0.00 | 90 | 1008.2 |
| 20260505091538 | 8 | 203 | 3.2 | 9.7 | 0.00 | 0.00 | 0.00 | 90 | 1008.3 |
| 20260505091017 | 8 | 180 | 1.6 | 4.8 | 0.00 | 0.00 | 0.00 | 89 | 1008.3 |
| 20260505090517 | 8 | 180 | 1.6 | 6.4 | 0.00 | 0.00 | 0.00 | 88 | 1008.3 |
| 20260505090018 | 8 | 158 | 1.6 | 6.4 | 0.00 | 0.00 | 0.00 | 88 | 1008.3 |
| 20260505085518 | 8 | 158 | 1.6 | 3.2 | 0.00 | 0.00 | 0.00 | 88 | 1008.3 |
| 20260505085018 | 8 | 158 | 1.6 | 6.4 | 0.00 | 0.00 | 0.00 | 87 | 1008.4 |
| 20260505084517 | 8 | 0.0 | 1.6 | 0.00 | 0.00 | 0.00 | 86 | 1008.4 | |
| 20260505084019 | 8 | 0.0 | 1.6 | 0.00 | 0.00 | 0.00 | 86 | 1008.5 | |
| 20260505083518 | 8 | 0.0 | 3.2 | 0.00 | 0.00 | 0.00 | 86 | 1008.3 | |
| 20260505083020 | 8 | 0.0 | 3.2 | 0.00 | 0.00 | 0.00 | 86 | 1008.4 | |
| 20260505082520 | 8 | 180 | 1.6 | 3.2 | 0.00 | 0.00 | 0.00 | 86 | 1008.3 |
| 20260505082019 | 9 | 0.0 | 1.6 | 0.00 | 0.00 | 0.00 | 86 | 1008.5 | |
| 20260505081523 | 9 | 203 | 3.2 | 6.4 | 0.00 | 0.00 | 0.00 | 87 | 1008.4 |
| 20260505081039 | 9 | 203 | 3.2 | 6.4 | 0.00 | 0.00 | 0.00 | 86 | 1008.5 |
| 20260505080518 | 9 | 0.0 | 4.8 | 0.00 | 0.00 | 0.00 | 86 | 1008.4 | |
| 20260505080018 | 9 | 180 | 1.6 | 4.8 | 0.00 | 0.00 | 0.00 | 85 | 1008.4 |
| 20260505075518 | 9 | 203 | 1.6 | 4.8 | 0.00 | 0.00 | 0.00 | 85 | 1008.5 |
| 20260505075017 | 9 | 203 | 3.2 | 4.8 | 0.00 | 0.00 | 0.00 | 86 | 1008.4 |
| 20260505074519 | 9 | 203 | 3.2 | 6.4 | 0.00 | 0.00 | 0.00 | 85 | 1008.4 |
| 20260505074017 | 9 | 0.0 | 3.2 | 0.00 | 0.00 | 0.00 | 84 | 1008.4 | |
| 20260505073538 | 9 | 0.0 | 1.6 | 0.00 | 0.00 | 0.00 | 84 | 1008.4 | |
| 20260505073019 | 10 | 0.0 | 0.0 | 0.00 | 0.00 | 0.00 | 83 | 1008.4 | |
| 20260505072538 | 10 | 180 | 1.6 | 8.0 | 0.00 | 0.00 | 0.00 | 83 | 1008.4 |
| 20260505072017 | 10 | 203 | 3.2 | 8.0 | 0.00 | 0.00 | 0.00 | 83 | 1008.3 |
| 20260505071523 | 10 | 203 | 1.6 | 6.4 | 0.00 | 0.00 | 0.00 | 83 | 1008.4 |
| 20260505071047 | 10 | 203 | 3.2 | 4.8 | 0.00 | 0.00 | 0.00 | 83 | 1008.5 |